Regional Weather Roundup
Issued by NWS

Home | Current Version | Previous Version | Graphics & Text | Print | Product List | Glossary On
Versions: 1 2 3 4 5 6 7 8 9 10 11 12 13 14 15 16 17 18 19 20 21 22 23 24 25 26 27 28 29 30 31 32 33 34 35 36 37 38 39 40 41 42 43 44 45 46 47 48 49 50
137
ASUS43 KDTX 241310
RWRMI
MICHIGAN HOURLY REGIONAL WEATHER ROUNDUP
NATIONAL WEATHER SERVICE DETROIT/PONTIAC MI
800 AM EST FRI FEB 24 2017

NOTE: "FAIR" INDICATES FEW OR NO CLOUDS BELOW 12,000 FEET WITH NO
SIGNIFICANT WEATHER AND/OR OBSTRUCTION TO VISIBILITY.

MIZ047>049-052>055-059>063-066>070-074>076-081>083-241400-
SOUTHEAST LOWER MICHIGAN

CITY           SKY/WX    TMP DP  RH WIND       PRES   REMARKS
ADRIAN         FOG       41  41 100 SE7       29.62F VSB 1/4
ALMA           CLOUDY    32  32  99 NE15      29.66F FOG     WCI  22
ANN ARBOR      FOG       41  41 100 E7        29.62F VSB 1/4
BAD AXE        CLOUDY    35  35  98 NE10G20   29.68F WCI  28
CARO           CLOUDY    35  35  98 E8        29.65F WCI  29
DETROIT CITY   CLOUDY    41  41 100 E5        29.65F FOG
DETROIT        FOG       42  41  96 E3        29.64F VSB 1/4
FLINT          CLOUDY    37  36  96 E10       29.64F FOG     WCI  30
GROSSE ILE     FOG       43  43  98 SE5       29.63F VSB<1/4
HILLSDALE      FOG       43  43 100 E7        29.57F VSB<1/4
HOWELL         FOG       39  38  95 E5        29.63S VSB 3/4

CITY           SKY/WX    TMP DP  RH WIND       PRES   REMARKS
JACKSON        FOG       41  40  96 SE9       29.59F VSB 1/4
LAMBERTVILLE   FOG       41  39  95 SE7       29.62F VSB 1/4
LANSING        FOG       37  35  92 E9        29.60F VSB 1   WCI  30
LAPEER         CLOUDY    37  37  99 E7        29.65F FOG     WCI  31
MASON          CLOUDY    38  38  99 E6        29.60F FOG     WCI  34
MONROE         FOG       39  39 100 SE7G20    29.63F VSB<1/4 WCI  34
MT. CLEMENS    CLOUDY    40  40 100 NE7       29.64F FOG
PONTIAC        DRZL/FOG  38  36  92 E8        29.62F VSB 1/4 WCI  32
PORT HOPE        N/A     37  36  96 NE20      29.68F WCI  27
PORT HURON     CLOUDY    37  37 100 N7        29.68R FOG     WCI  32
TRI CITIES     MIX PCPN  34  34 100 N16       29.70R FOG     WCI  24
MIDLAND        MIX PCPN  33  32  95 NE7       29.68R WCI  27
TROY           CLOUDY    40  38  93 E6        29.66F FOG
SAGINAW HB     CLOUDY    34  32  93 NE8       29.67S FOG     WCI  27
$$
MIZ043>046-050>051-056>058-064>065-071>073-077>080-241400-
SOUTHWEST LOWER MICHIGAN

CITY           SKY/WX    TMP DP  RH WIND       PRES   REMARKS
BATTLE CREEK   FOG       41  41 100 E8        29.56F VSB 1/2
BENTON HARBOR  TSTM      54  51  90 SE12      29.46F
BIG RAPIDS     LGT SNOW  34  32  92 E10       29.60S WCI  26
COLDWATER      CLOUDY    48  48 100 SE9G17    29.55F FOG
FREMONT        MIX PCPN  33  32  97 E15G22    29.58F WCI  23
HOLLAND        LGT RAIN  39  36  89 E14G26    29.53F WCI  31
GRAND RAPIDS   CLOUDY    35  33  92 E17       29.57F FOG     WCI  25
IONIA          CLOUDY    33  32  97 NE13G23   29.60F FOG     WCI  24
KALAMAZOO      FOG       43  39  86 E9        29.55F VSB 1
LUDINGTON      LGT SNOW  32  32 100 E13       29.59F WCI  22
MARSHALL       CLOUDY    42  41  98 E7        29.57F FOG
MOUNT PLEASANT MIX PCPN  32  32  99 NE9       29.66F WCI  24
MUSKEGON       TSTM      35  33  92 E17       29.56F FOG     WCI  25
SOUTH HAVEN    CLOUDY    45  44  97 E12       29.50F FOG
$$
MIZ016>042-241400-
NORTHERN LOWER MICHIGAN

CITY           SKY/WX    TMP DP  RH WIND       PRES   REMARKS
ALPENA         FLURRIES  33  33 100 E6        29.80R WCI  28
BEAVER ISLAND  LGT SNOW  27  25  94 NE10G24   29.77F WCI  17
BELLAIRE       CLOUDY    29  27  90 NE8       29.72F WCI  21
CADILLAC       MIX PCPN  31  29  93 E7G21     29.63F WCI  24
CHARLEVOIX     LGT SNOW  28  28  96 NE12      29.77F WCI  18
FRANKFORT      MIX PCPN  30  28  89 NE10G21   29.66F WCI  21
GAYLORD        LGT SNOW  28  23  81 NE13G21   29.69F WCI  17
GRAYLING       MIX PCPN  31  29  94 E14       29.69F WCI  20
HARBOR SPRINGS LGT SNOW  28  26  94 NE8       29.76F VSB 3/4 WCI  19
HOUGHTON LAKE  FRZ RAIN  31  29  92 E14       29.68F FOG     WCI  21
MANISTEE       MIX PCPN  32  28  86 NE17G29   29.60F FOG     WCI  21
OSCODA         LGT SNOW  34  33  96 N12       29.75R WCI  25
PELLSTON       SNOW      28  24  85 NE9       29.77F VSB 1/2 WCI  19
ROGERS CITY    LGT SNOW  33  32  96 NE13      29.78F WCI  24
TRAVERSE CITY  FRZ RAIN  30  27  88 NE15      29.68F WCI  19
$$
MIZ007>008-015-241400-
EASTERN UPPER MICHIGAN

CITY           SKY/WX    TMP DP  RH WIND       PRES   REMARKS
KINROSS        FLURRIES  27  22  81 NE10      29.82F WCI  17
MACKINAC ISLAN LGT SNOW  27  27 100 NE14      29.78F VSB 1   WCI  15
NEWBERRY       CLOUDY    26  18  71 NE15      29.80F WCI  14
S. S. MARIE    CLOUDY    29  21  72 NE8       29.84S WCI  21
MUNISING         N/A     29  22  75 NE22      29.86R WCI  15
$$
MIZ004>006-011>014-085-241400-
CENTRAL UPPER MICHIGAN

CITY           SKY/WX    TMP DP  RH WIND       PRES   REMARKS
MANISTIQUE     CLOUDY    28  22  78 NE14      29.80R WCI  17
ESCANABA       LGT SNOW  28  25  86 N12G18    29.79F VSB 3/4 WCI  18
MENOMINEE      LGT SNOW  28  27  93 NE10      29.85R VSB 1   WCI  19
SAWYER-GWINN   FLURRIES  25  21  86 N24       29.82F WCI   9
$$
MIZ001>003-009>011-084-241400-
WESTERN UPPER MICHIGAN

CITY           SKY/WX    TMP DP  RH WIND       PRES   REMARKS
IRON MOUNTAIN  LGT SNOW  26  20  77 N13G22    29.83R WCI  15
HOUGHTON       LGT SNOW  20  12  71 NE9       29.94R WCI   9
COPPER HARBOR    N/A     22  17  81 E18       29.97R WCI   7
IRONWOOD       FLURRIES  21  17  84 NE15      29.88F WCI   8
$$

ABBREVIATIONS USED IN REMARKS
   TC - TEMPERATURE IN CELSIUS
  WCI - WIND CHILL INDEX
   HX - HEAT INDEX
  VSB - VISIBILITY





USA.gov is the U.S. government's official web portal to all federal, state and local government web resources and services.